Wind_Speed
16 12 9 10 11 14 16 17 18 17 16 16 14 13 13 13 13 14 14 14 15 16 15 17 20 23 26 22 20 16 19 19 16 13 16 18 21 22 25 24 25 25 26
17 16 15 15 18 19 18 19 18 17 17 17 18 18 18 17 18 18 20 19 19 20 19 19 21 37 35 31 25 23 22 23 22 17 19 21 25 24 25 26 27 27 27
23 22 22 22 23 26 26 23 19 18 18 19 19 18 19 18 19 22 23 24 25 26 25 30 25 29 40 19 27 26 26 26 25 24 23 25 27 27 28 28 29 30 28
26 28 29 28 30 31 29 26 22 19 17 17 17 21 22 22 22 25 27 29 23 22 21 26 30 28 30 26 22 29 29 28 28 29 29 30 32 31 32 31 31 31 29
26 29 32 34 34 33 29 27 19 14 12 23 27 27 29 29 26 26 30 35 29 24 30 35 36 28 30 33 28 27 29 29 31 32 33 36 38 35 35 36 33 33 29
34 34 36 35 16 25 37 26 20 26 23 40 38 32 34 37 36 36 38 36 32 28 30 30 26 21 19 22 27 28 28 31 34 39 40 41 39 38 39 38 36 35 32
21 25 31 21 30 23 14 6 11 21 34 35 42 43 44 41 38 39 43 41 34 29 28 27 27 27 27 27 29 32 33 36 40 42 43 42 42 40 43 42 41 35 30
23 22 25 24 29 19 15 23 28 31 37 43 45 45 41 38 42 40 32 31 30 30 30 30 31 31 34 36 37 39 39 40 42 44 45 43 43 42 42 42 36 33 34
27 30 23 28 20 6 5 8 12 15 17 18 21 23 24 28 30 30 32 33 34 35 35 37 38 38 39 40 40 41 42 40 41 41 42 41 41 41 40 39 30 33 32
11 9 13 13 8 8 10 13 16 19 22 23 25 27 28 30 34 38 41 42 40 39 38 39 39 40 39 40 40 39 38 35 35 36 37 37 37 35 37 37 34 33 30
15 14 11 10 12 14 16 18 21 24 26 27 29 30 32 35 38 42 45 46 46 44 43 41 38 37 36 36 38 38 39 38 36 37 35 33 33 33 32 33 31 28 29
16 16 17 17 17 17 20 23 24 26 28 31 32 34 36 39 41 42 42 41 40 39 38 37 36 36 38 39 38 36 36 36 35 34 33 27 27 28 29 30 30 31 28
19 20 22 24 24 25 26 28 29 31 33 34 36 37 39 40 41 43 41 40 40 40 41 40 39 37 36 36 36 36 34 32 32 32 32 27 26 25 22 23 24 26 28
19 21 23 27 30 31 31 32 32 34 35 36 38 38 38 37 38 40 41 41 41 42 42 39 38 38 37 37 35 35 34 33 32 29 31 32 31 32 27 27 26 26 27
22 24 26 30 32 33 34 35 36 37 38 38 38 38 37 36 36 39 41 41 41 41 41 38 37 37 36 36 36 36 34 32 30 28 28 30 32 36 36 34 31 27 29
27 30 32 33 35 36 36 35 37 39 39 40 41 41 39 39 39 38 39 41 42 42 41 39 37 36 35 35 35 34 32 31 30 29 27 27 29 32 34 34 33 30 28
34 36 38 39 40 41 41 40 38 33 36 37 39 40 41 40 38 38 39 40 40 40 39 38 36 34 33 33 33 33 32 29 31 30 29 27 27 28 29 30 33 33 30
38 39 39 39 38 37 38 38 39 41 38 34 36 39 39 40 40 39 37 38 37 36 36 36 34 31 31 32 31 31 32 31 30 31 29 28 27 28 26 24 27 34 31
34 34 35 35 35 36 37 37 37 37 38 38 36 32 36 39 37 34 37 39 38 36 36 36 35 34 33 33 33 33 34 33 31 28 27 29 29 29 29 24 24 29 28
32 33 33 34 34 35 35 34 34 33 33 33 33 34 34 31 34 36 34 35 38 39 40 40 39 37 36 35 34 35 34 32 30 30 29 29 30 32 32 27 24 26 25
30 30 31 31 31 30 30 28 29 30 31 32 32 33 34 37 36 34 36 35 35 36 36 37 37 35 33 32 33 35 35 35 34 31 30 30 29 30 28 28 26 25 24
24 24 25 26 25 25 25 27 29 30 31 32 33 34 37 39 40 38 35 35 34 34 34 35 34 33 30 31 31 30 30 30 31 32 31 29 29 30 31 29 26 28 27
24 24 24 25 25 24 23 24 27 29 32 34 39 42 42 41 38 34 32 30 29 29 29 29 29 29 30 31 30 31 30 27 26 29 32 30 30 30 30 32 28 28 27
25 26 25 24 26 22 21 23 25 27 31 34 36 36 37 37 31 29 20 24 19 19 22 22 19 22 24 26 27 27 29 28 27 29 27 31 25 31 31 34 32 30 29
27 29 22 29 29 19 20 23 24 24 30 30 33 36 35 29 26 14 18 23 21 16 18 14 16 18 19 18 19 24 25 25 28 28 32 30 28 29 29 30 30 29 30
24 22 24 28 20 16 18 20 21 26 27 29 35 32 28 19 17 20 17 19 22 17 17 15 12 18 22 18 20 21 21 23 26 32 34 33 32 30 29 32 32 31 30
Wind_Direction
206 197 212 241 249 242 246 244 242 243 242 241 244 239 238 243 251 261 265 268 270 276 280 286 282 284 273 279 276 280 285 285 292 310 318 323 328 329 332 325 324 326 327
213 217 221 230 245 250 249 248 245 241 239 235 234 241 247 251 255 261 266 271 273 271 275 288 298 295 272 266 269 271 268 278 281 296 308 314 324 324 325 325 324 324 321
219 228 238 242 246 250 248 244 242 242 243 244 250 257 264 263 270 276 274 278 283 283 274 276 270 275 292 202 251 259 260 271 275 287 296 303 312 318 320 319 321 322 317
235 237 245 252 255 247 244 244 239 240 249 257 265 267 261 264 269 276 278 276 282 295 282 287 295 293 280 294 254 251 254 263 270 279 291 298 303 310 312 310 310 313 312
236 239 244 250 253 252 243 234 235 239 259 243 252 258 267 270 269 280 290 294 289 288 291 294 296 287 280 274 263 257 258 266 272 280 288 292 300 303 303 301 300 301 306
254 250 249 250 322 269 237 218 242 247 244 241 249 259 272 281 274 278 287 292 287 292 293 287 283 287 276 267 265 268 268 271 277 282 286 290 294 296 294 295 294 293 298
296 293 273 306 323 339 357 297 202 228 234 247 249 260 268 278 279 286 286 290 292 293 290 284 284 286 283 277 273 276 278 280 282 283 285 287 286 289 288 290 290 285 288
297 303 301 301 299 281 247 248 231 239 248 252 255 263 275 281 283 287 290 292 293 293 291 288 287 285 281 278 277 277 277 279 280 280 281 283 283 284 283 283 285 281 285
278 275 281 288 281 247 229 245 253 261 269 276 274 276 281 282 285 288 289 287 288 288 288 289 289 287 285 284 283 283 282 282 279 279 279 280 280 279 279 278 276 272 282
239 234 251 264 251 245 251 256 264 270 274 277 279 280 283 287 290 292 292 292 290 290 289 287 286 287 288 289 289 288 288 285 282 279 279 281 282 280 274 272 271 268 270
279 277 280 263 241 251 255 259 262 265 268 271 274 278 281 283 287 289 291 292 292 292 291 290 290 290 289 288 288 290 289 288 285 282 280 279 278 277 273 269 263 265 264
272 277 277 267 263 264 271 273 274 275 276 277 279 280 282 284 286 287 287 287 289 291 292 292 291 289 289 287 286 286 286 286 285 282 282 281 279 275 273 272 270 254 259
285 281 281 282 286 288 288 285 282 281 282 283 284 284 286 288 288 287 287 287 289 292 293 294 293 292 289 286 286 287 288 288 285 281 277 266 259 262 265 271 271 266 253
297 289 286 288 288 287 286 285 284 282 281 281 281 283 284 284 285 285 286 287 288 290 293 292 291 291 290 290 291 292 293 292 290 285 274 262 249 249 258 265 270 267 254
290 289 287 287 285 286 286 287 287 289 288 287 286 286 285 285 286 286 287 286 286 287 287 287 288 289 290 290 291 292 292 291 290 287 282 271 257 251 253 258 265 263 252
292 291 291 289 289 289 289 290 294 294 294 295 294 292 291 290 287 283 282 284 285 285 285 285 285 285 285 285 285 286 286 286 284 280 280 279 271 262 259 255 257 259 254
295 295 296 296 296 297 297 297 295 294 295 296 295 295 294 291 288 287 287 284 282 281 281 280 279 279 280 281 282 283 282 280 277 278 277 277 276 274 269 263 255 252 255
294 293 293 293 296 298 298 299 299 299 297 292 292 293 291 290 291 292 287 284 283 281 281 281 281 279 278 279 279 280 280 281 277 273 274 274 274 275 273 271 259 254 252
292 293 295 298 298 298 297 297 297 297 298 298 297 293 293 294 294 290 288 287 286 285 282 281 281 282 281 280 282 283 277 277 277 275 272 270 270 272 275 276 268 256 254
296 298 299 300 299 298 299 300 301 303 304 305 304 304 302 297 297 296 291 288 285 284 283 282 282 282 280 279 281 280 281 275 278 271 267 266 265 263 267 267 262 261 257
297 297 297 297 299 300 300 303 305 308 309 310 313 311 310 307 306 299 296 295 293 290 289 286 281 280 279 281 279 275 275 271 270 270 264 261 262 261 262 261 253 251 254
298 298 295 296 295 294 296 300 302 304 308 310 311 310 308 307 303 297 293 290 290 291 289 287 286 281 279 282 283 283 283 279 271 266 263 262 261 257 258 259 258 251 253
303 301 305 309 303 300 305 308 314 315 315 316 312 311 309 307 304 300 298 294 293 292 291 289 288 284 281 282 284 281 284 280 275 266 263 260 261 261 255 249 254 253 251
301 303 305 312 311 308 304 309 313 317 325 324 321 318 313 312 308 306 306 304 308 305 307 302 305 304 295 288 281 282 278 270 279 269 266 261 258 259 257 249 252 250 247
290 279 296 299 301 290 297 306 313 321 327 327 328 324 318 312 312 303 305 304 307 301 305 285 321 310 311 308 308 303 295 293 263 268 268 259 259 262 253 245 242 241 241
291 270 281 286 290 293 304 313 323 321 323 332 340 341 340 316 307 312 303 306 318 302 306 298 301 313 312 310 309 302 304 283 271 278 271 265 257 254 249 244 240 240 238
Height
3187 3188 3190 3193 3193 3193 3193 3193 3194 3196 3198 3199 3200 3202 3202 3203 3203 3204 3204 3204 3203 3205 3205 3206 3207 3205 3204 3201 3198 3194 3194 3193 3191 3190 3187 3183 3180 3177 3174 3170 3166 3162 3157
3185 3187 3187 3189 3189 3189 3190 3190 3191 3190 3190 3191 3194 3195 3195 3198 3197 3198 3197 3197 3198 3198 3199 3197 3199 3199 3201 3197 3193 3192 3188 3187 3186 3184 3183 3180 3177 3173 3170 3166 3162 3158 3153
3180 3183 3183 3184 3185 3186 3184 3184 3185 3187 3189 3190 3190 3191 3192 3193 3194 3195 3195 3193 3193 3194 3194 3194 3191 3193 3189 3167 3186 3183 3183 3181 3180 3178 3177 3175 3172 3169 3165 3161 3157 3154 3150
3175 3174 3176 3178 3176 3176 3177 3179 3181 3182 3184 3185 3185 3186 3187 3188 3189 3189 3188 3186 3186 3185 3185 3185 3185 3186 3185 3182 3179 3177 3176 3174 3174 3172 3171 3169 3168 3164 3160 3157 3153 3149 3145
3168 3167 3167 3168 3169 3169 3171 3172 3176 3178 3180 3180 3179 3179 3179 3181 3180 3179 3180 3179 3179 3177 3176 3175 3175 3175 3175 3173 3172 3171 3169 3168 3168 3167 3165 3163 3161 3158 3155 3151 3146 3142 3139
3153 3156 3156 3154 3160 3156 3159 3162 3169 3174 3176 3170 3172 3173 3173 3172 3172 3171 3172 3174 3172 3169 3169 3167 3166 3165 3165 3165 3164 3164 3162 3162 3162 3159 3157 3155 3154 3150 3147 3143 3139 3135 3131
3149 3148 3152 3152 3154 3156 3156 3154 3158 3166 3166 3167 3165 3165 3165 3163 3163 3163 3164 3162 3160 3158 3157 3157 3157 3157 3157 3157 3157 3157 3156 3155 3152 3150 3147 3147 3143 3142 3138 3134 3132 3129 3125
3149 3150 3151 3149 3150 3146 3148 3153 3156 3158 3160 3160 3159 3158 3158 3156 3156 3156 3153 3152 3151 3150 3149 3148 3147 3148 3149 3148 3148 3148 3147 3145 3142 3138 3134 3133 3131 3130 3127 3124 3122 3120 3116
3148 3147 3145 3146 3145 3146 3146 3148 3151 3153 3154 3152 3152 3150 3148 3147 3147 3147 3146 3145 3143 3142 3141 3139 3138 3138 3136 3137 3136 3134 3132 3132 3128 3125 3123 3120 3119 3118 3115 3113 3112 3111 3109
3143 3142 3142 3142 3144 3146 3147 3147 3147 3149 3149 3147 3147 3145 3143 3140 3139 3135 3136 3134 3133 3131 3130 3129 3128 3126 3123 3123 3121 3119 3118 3118 3116 3114 3112 3109 3106 3105 3104 3102 3101 3101 3101
3138 3136 3134 3137 3141 3143 3144 3144 3145 3145 3143 3142 3141 3138 3135 3134 3133 3129 3124 3121 3118 3118 3117 3115 3114 3112 3110 3110 3109 3106 3104 3103 3102 3100 3100 3098 3095 3093 3092 3091 3091 3092 3092
3131 3130 3130 3132 3135 3137 3137 3137 3137 3136 3135 3135 3132 3129 3126 3124 3122 3119 3115 3112 3109 3107 3106 3102 3102 3099 3097 3097 3097 3094 3091 3090 3089 3087 3085 3085 3085 3083 3082 3082 3081 3082 3083
3125 3126 3125 3125 3125 3126 3126 3127 3128 3127 3125 3123 3120 3118 3117 3113 3109 3105 3104 3101 3100 3095 3093 3089 3089 3085 3083 3085 3083 3081 3078 3076 3075 3074 3074 3075 3076 3075 3074 3073 3072 3072 3074
3120 3122 3122 3122 3121 3119 3118 3117 3116 3115 3114 3113 3110 3107 3105 3103 3097 3093 3090 3090 3088 3086 3080 3080 3076 3071 3071 3071 3070 3068 3066 3064 3063 3063 3062 3063 3064 3065 3065 3064 3064 3065 3065
3117 3116 3115 3114 3113 3112 3111 3109 3106 3102 3101 3098 3095 3092 3089 3088 3086 3083 3079 3078 3076 3073 3070 3068 3064 3061 3059 3059 3057 3055 3055 3054 3053 3052 3051 3050 3051 3053 3054 3055 3055 3055 3056
3110 3107 3106 3105 3103 3102 3101 3100 3093 3092 3090 3085 3081 3078 3077 3073 3072 3069 3065 3064 3063 3060 3058 3056 3054 3053 3051 3050 3048 3046 3046 3045 3044 3042 3042 3041 3040 3041 3042 3045 3045 3046 3047
3100 3098 3096 3094 3093 3090 3087 3085 3084 3084 3079 3075 3071 3067 3063 3061 3059 3057 3055 3053 3050 3046 3044 3045 3044 3043 3041 3040 3038 3037 3036 3036 3035 3034 3033 3033 3032 3031 3032 3033 3035 3037 3039
3092 3090 3088 3086 3083 3080 3077 3074 3071 3068 3068 3068 3062 3056 3053 3051 3047 3046 3043 3039 3038 3036 3034 3033 3032 3032 3030 3029 3028 3027 3026 3026 3025 3025 3025 3024 3024 3023 3023 3024 3025 3026 3029
3086 3082 3079 3077 3074 3072 3069 3066 3063 3061 3056 3052 3051 3050 3045 3041 3039 3036 3032 3029 3026 3025 3024 3022 3021 3020 3019 3018 3017 3016 3014 3014 3014 3014 3015 3014 3014 3013 3013 3015 3017 3017 3019
3078 3075 3072 3069 3067 3064 3060 3058 3055 3051 3048 3044 3040 3036 3034 3032 3029 3025 3022 3018 3016 3013 3011 3010 3009 3008 3008 3007 3006 3004 3003 3003 3004 3004 3004 3004 3004 3004 3005 3007 3009 3010 3010
3072 3070 3066 3063 3060 3058 3054 3052 3048 3045 3040 3036 3033 3030 3026 3021 3017 3015 3012 3009 3005 3001 2998 2997 2996 2996 2997 2995 2994 2993 2992 2992 2992 2993 2993 2994 2995 2995 2997 2997 2999 3001 3003
3067 3064 3061 3059 3056 3053 3050 3047 3043 3039 3035 3031 3028 3025 3020 3014 3008 3004 3002 2998 2995 2992 2989 2986 2984 2984 2985 2984 2982 2981 2981 2980 2981 2981 2982 2983 2985 2985 2987 2988 2990 2992 2994
3061 3058 3056 3053 3050 3046 3044 3041 3038 3034 3030 3026 3020 3014 3008 3003 2997 2992 2989 2987 2984 2982 2979 2976 2974 2974 2973 2973 2972 2970 2970 2970 2970 2970 2970 2971 2973 2974 2975 2977 2980 2983 2985
3054 3052 3050 3048 3045 3042 3041 3038 3035 3031 3025 3019 3013 3006 2998 2992 2987 2984 2982 2979 2976 2975 2972 2969 2968 2966 2965 2963 2962 2961 2960 2959 2960 2960 2960 2960 2962 2964 2965 2967 2970 2972 2976
3047 3045 3043 3042 3040 3039 3037 3034 3030 3026 3020 3014 3007 2999 2990 2984 2979 2977 2976 2974 2971 2969 2967 2965 2963 2962 2960 2958 2955 2954 2952 2949 2949 2949 2949 2950 2952 2953 2954 2956 2960 2962 2965
3039 3037 3036 3036 3034 3033 3031 3029 3025 3021 3016 3010 3002 2991 2983 2978 2976 2973 2971 2968 2966 2964 2961 2960 2958 2956 2955 2953 2950 2947 2944 2941 2940 2939 2938 2939 2940 2943 2944 2947 2950 2952 2956